Location: Newark
(0.5333°S, 166.9167°E)
Time: 14:06:49
(UTC+00:00)

METEOR M2 - Visible Passes

Search period start: 21 May 2019 00:00
Search period end: 31 May 2019 00:00
Orbit: 819 x 827 km, 98.6° (Epoch: 21 May)

Date Brightness Start Highest point End Pass type
(mag) Time Alt. Az. Time Alt. Az. Time Alt. Az.
21 May ? 09:49:47 13° NNW 09:49:47 13° NNW 09:50:23 10° NNW visible
22 May ? 09:29:36 16° N 09:29:36 16° N 09:30:40 10° N visible
23 May ? 09:09:24 17° N 09:09:24 17° N 09:10:36 10° N visible
24 May ? 08:49:13 14° NNE 08:49:13 14° NNE 08:50:09 10° NNE visible
25 May ? 08:29:01 10° NE 08:29:01 10° NE 08:29:05 10° NE visible
26 May ? 09:50:15 15° NNW 09:50:15 15° NNW 09:51:04 10° NNW visible
27 May ? 09:30:03 18° N 09:30:03 18° N 09:31:22 10° N visible
28 May ? 09:09:52 19° N 09:09:52 19° N 09:11:20 10° N visible
29 May ? 08:49:40 16° NNE 08:49:40 16° NNE 08:50:54 10° NNE visible
30 May ? 08:29:29 11° NE 08:29:29 11° NE 08:29:52 10° NE visible
30 May ? 10:10:54 11° NW 10:10:54 11° NW 10:11:03 10° NW visible
